Location: Ozark
(37.5425°N, 88.7628°W)
Time: 01:46:53
(UTC+00:00)

Cosmos 1703 - Pass Details

Date: 26 January 2020
Orbit: 523 x 541 km, 82.5° (Epoch: 25 February)

Event Time Altitude Azimuth Distance (km) Brightness Sun altitude
Exits shadow 12:06:10 13° 317° (NW) 1,619 5.2 -11.6°
Maximum altitude 12:08:42 22° 271° (W) 1,181 4.4 -11.1°
Drops below altitude 10° 12:11:46 10° 219° (SW) 1,772 5.7 -10.5°
Sets 12:14:13 0° 204° (SSW) 2,653 6.7 -10.0°
